Year,Month,Day,Hour,Minute,Value (Times are PST for temperature in C)
2009,05,28,00,00,9.30
2009,05,28,00,01,9.30
2009,05,28,00,02,9.20
2009,05,28,00,03,9.20
2009,05,28,00,04,9.20
2009,05,28,00,05,9.20
2009,05,28,00,06,9.20
2009,05,28,00,07,9.20
2009,05,28,00,08,9.20
2009,05,28,00,09,9.20
2009,05,28,00,10,9.20
2009,05,28,00,11,9.20
2009,05,28,00,12,9.20
2009,05,28,00,16,9.20
2009,05,28,00,17,9.20
2009,05,28,00,18,9.20
2009,05,28,00,19,9.20
2009,05,28,00,20,9.20
2009,05,28,00,21,9.20
2009,05,28,00,22,9.20
2009,05,28,00,23,9.20
2009,05,28,00,24,9.20
2009,05,28,00,25,9.20
2009,05,28,00,26,9.20
2009,05,28,00,27,9.20
2009,05,28,00,28,9.20
2009,05,28,00,29,9.20
2009,05,28,00,30,9.20
2009,05,28,00,31,9.20
2009,05,28,00,32,9.20
2009,05,28,00,33,9.10
2009,05,28,00,34,9.10
2009,05,28,00,35,9.10
2009,05,28,00,36,9.10
2009,05,28,00,37,9.10
2009,05,28,00,38,9.10
2009,05,28,00,39,9.10
2009,05,28,00,40,9.10
2009,05,28,00,41,9.10
2009,05,28,00,42,9.10
2009,05,28,00,43,9.10
2009,05,28,00,44,9.00
2009,05,28,00,45,9.00
2009,05,28,00,46,9.00
2009,05,28,00,47,9.00
2009,05,28,00,48,9.00
2009,05,28,00,49,9.00
2009,05,28,00,50,9.00
2009,05,28,00,51,8.90
2009,05,28,00,52,8.90
2009,05,28,00,53,8.90
2009,05,28,00,54,8.90
2009,05,28,00,55,8.90
2009,05,28,00,56,8.90
2009,05,28,00,57,8.90
2009,05,28,00,58,8.90
2009,05,28,00,59,8.90
2009,05,28,01,00,8.80
2009,05,28,01,01,8.80
2009,05,28,01,02,8.80
2009,05,28,01,03,8.80
2009,05,28,01,04,8.80
2009,05,28,01,05,8.80
2009,05,28,01,06,8.80
2009,05,28,01,07,8.70
2009,05,28,01,08,8.70
2009,05,28,01,09,8.70
2009,05,28,01,10,8.70
2009,05,28,01,11,8.70
2009,05,28,01,12,8.70
2009,05,28,01,13,8.70
2009,05,28,01,14,8.70
2009,05,28,01,15,8.70
2009,05,28,01,16,8.70
2009,05,28,01,17,8.70
2009,05,28,01,18,8.60
2009,05,28,01,19,8.60
2009,05,28,01,20,8.60
2009,05,28,01,21,8.60
2009,05,28,01,22,8.60
2009,05,28,01,23,8.50
2009,05,28,01,24,8.50
2009,05,28,01,25,8.50
2009,05,28,01,26,8.50
2009,05,28,01,27,8.50
2009,05,28,01,28,8.40
2009,05,28,01,29,8.40
2009,05,28,01,30,8.40
2009,05,28,01,31,8.40
2009,05,28,01,32,8.40
2009,05,28,01,33,8.40
2009,05,28,01,34,8.40
2009,05,28,01,35,8.40
2009,05,28,01,36,8.40
2009,05,28,01,37,8.30
2009,05,28,01,38,8.30
2009,05,28,01,39,8.30
2009,05,28,01,40,8.30
2009,05,28,01,41,8.30
2009,05,28,01,42,8.30
2009,05,28,01,43,8.30
2009,05,28,01,44,8.30
2009,05,28,01,45,8.30
2009,05,28,01,46,8.30
2009,05,28,01,47,8.20
2009,05,28,01,48,8.20
2009,05,28,01,49,8.20
2009,05,28,01,50,8.20
2009,05,28,01,51,8.20
2009,05,28,01,52,8.20
2009,05,28,01,53,8.20
2009,05,28,01,54,8.20
2009,05,28,01,55,8.20
2009,05,28,01,56,8.20
2009,05,28,01,57,8.20
2009,05,28,01,58,8.20
2009,05,28,01,59,8.20
2009,05,28,02,00,8.20
2009,05,28,02,01,8.20
2009,05,28,02,02,8.20
2009,05,28,02,03,8.20
2009,05,28,02,04,8.20
2009,05,28,02,05,8.20
2009,05,28,02,06,8.20
2009,05,28,02,07,8.20
2009,05,28,02,08,8.20
2009,05,28,02,09,8.20
2009,05,28,02,10,8.20
2009,05,28,02,11,8.20
2009,05,28,02,12,8.10
2009,05,28,02,13,8.10
2009,05,28,02,14,8.10
2009,05,28,02,15,8.10
2009,05,28,02,16,8.10
2009,05,28,02,17,8.10
2009,05,28,02,18,8.10
2009,05,28,02,19,8.10
2009,05,28,02,20,8.10
2009,05,28,02,21,8.10
2009,05,28,02,22,8.10
2009,05,28,02,23,8.00
2009,05,28,02,24,8.00
2009,05,28,02,25,8.00
2009,05,28,02,26,8.00
2009,05,28,02,27,8.00
2009,05,28,02,28,8.00
2009,05,28,02,29,8.00
2009,05,28,02,30,8.00
2009,05,28,02,31,8.00
2009,05,28,02,32,7.90
2009,05,28,02,33,7.90
2009,05,28,02,34,7.90
2009,05,28,02,35,7.90
2009,05,28,02,36,7.90
2009,05,28,02,37,7.90
2009,05,28,02,38,7.90
2009,05,28,02,39,7.90
2009,05,28,02,40,7.90
2009,05,28,02,41,7.90
2009,05,28,02,42,7.90
2009,05,28,02,43,7.80
2009,05,28,02,44,7.80
2009,05,28,02,45,7.80
2009,05,28,02,46,7.80
2009,05,28,02,47,7.80
2009,05,28,02,48,7.80
2009,05,28,02,49,7.80
2009,05,28,02,50,7.80
2009,05,28,02,51,7.80
2009,05,28,02,52,7.80
2009,05,28,02,53,7.80
2009,05,28,02,54,7.80
2009,05,28,02,55,7.80
2009,05,28,02,56,7.80
2009,05,28,02,57,7.80
2009,05,28,02,58,7.80
2009,05,28,02,59,7.80
2009,05,28,03,00,7.80
2009,05,28,03,01,7.80
2009,05,28,03,02,7.80
2009,05,28,03,03,7.70
2009,05,28,03,04,7.70
2009,05,28,03,05,7.70
2009,05,28,03,06,7.70
2009,05,28,03,07,7.70
2009,05,28,03,08,7.70
2009,05,28,03,09,7.70
2009,05,28,03,10,7.70
2009,05,28,03,11,7.70
2009,05,28,03,12,7.70
2009,05,28,03,13,7.60
2009,05,28,03,14,7.60
2009,05,28,03,15,7.60
2009,05,28,03,16,7.60
2009,05,28,03,17,7.60
2009,05,28,03,18,7.60
2009,05,28,03,19,7.60
2009,05,28,03,20,7.60
2009,05,28,03,21,7.60
2009,05,28,03,22,7.60
2009,05,28,03,23,7.60
2009,05,28,03,24,7.60
2009,05,28,03,25,7.60
2009,05,28,03,26,7.50
2009,05,28,03,27,7.50
2009,05,28,03,28,7.50
2009,05,28,03,29,7.50
2009,05,28,03,30,7.50
2009,05,28,03,31,7.50
2009,05,28,03,32,7.50
2009,05,28,03,33,7.50
2009,05,28,03,34,7.50
2009,05,28,03,35,7.50
2009,05,28,03,36,7.50
2009,05,28,03,37,7.50
2009,05,28,03,38,7.50
2009,05,28,03,39,7.40
2009,05,28,03,40,7.40
2009,05,28,03,41,7.40
2009,05,28,03,42,7.40
2009,05,28,03,43,7.40
2009,05,28,03,44,7.40
2009,05,28,03,45,7.40
2009,05,28,03,46,7.40
2009,05,28,03,47,7.40
2009,05,28,03,48,7.40
2009,05,28,03,49,7.40
2009,05,28,03,50,7.40
2009,05,28,03,51,7.40
2009,05,28,03,52,7.40
2009,05,28,03,53,7.40
2009,05,28,03,54,7.40
2009,05,28,03,55,7.40
2009,05,28,03,56,7.40
2009,05,28,03,57,7.40
2009,05,28,03,58,7.40
2009,05,28,03,59,7.40
2009,05,28,04,00,7.40
2009,05,28,04,01,7.40
2009,05,28,04,02,7.40
2009,05,28,04,03,7.30
2009,05,28,04,04,7.30
2009,05,28,04,05,7.30
2009,05,28,04,06,7.30
2009,05,28,04,07,7.30
2009,05,28,04,08,7.30
2009,05,28,04,09,7.30
2009,05,28,04,10,7.30
2009,05,28,04,11,7.30
2009,05,28,04,12,7.30
2009,05,28,04,13,7.30
2009,05,28,04,14,7.30
2009,05,28,04,15,7.30
2009,05,28,04,16,7.30
2009,05,28,04,17,7.30
2009,05,28,04,18,7.30
2009,05,28,04,19,7.30
2009,05,28,04,20,7.30
2009,05,28,04,21,7.30
2009,05,28,04,22,7.30
2009,05,28,04,23,7.30
2009,05,28,04,24,7.30
2009,05,28,04,25,7.30
2009,05,28,04,26,7.30
2009,05,28,04,27,7.30
2009,05,28,04,28,7.30
2009,05,28,04,29,7.30
2009,05,28,04,30,7.30
2009,05,28,04,31,7.30
2009,05,28,04,32,7.30
2009,05,28,04,33,7.30
2009,05,28,04,34,7.30
2009,05,28,04,35,7.30
2009,05,28,04,36,7.30
2009,05,28,04,37,7.30
2009,05,28,04,38,7.30
2009,05,28,04,39,7.30
2009,05,28,04,40,7.30
2009,05,28,04,41,7.30
2009,05,28,04,42,7.30
2009,05,28,04,43,7.30
2009,05,28,04,44,7.30
2009,05,28,04,45,7.30
2009,05,28,04,46,7.30
2009,05,28,04,47,7.30
2009,05,28,04,48,7.30
2009,05,28,04,49,7.30
2009,05,28,04,50,7.30
2009,05,28,04,51,7.30
2009,05,28,04,52,7.30
2009,05,28,04,53,7.30
2009,05,28,04,54,7.30
2009,05,28,04,55,7.30
2009,05,28,04,56,7.30
2009,05,28,04,57,7.30
2009,05,28,04,58,7.30
2009,05,28,04,59,7.30
2009,05,28,05,00,7.30
2009,05,28,05,01,7.30
2009,05,28,05,02,7.30
2009,05,28,05,03,7.30
2009,05,28,05,04,7.20
2009,05,28,05,05,7.20
2009,05,28,05,06,7.20
2009,05,28,05,07,7.20
2009,05,28,05,08,7.20
2009,05,28,05,09,7.20
2009,05,28,05,10,7.20
2009,05,28,05,11,7.20
2009,05,28,05,12,7.20
2009,05,28,05,13,7.20
2009,05,28,05,14,7.20
2009,05,28,05,15,7.20
2009,05,28,05,16,7.20
2009,05,28,05,17,7.20
2009,05,28,05,18,7.20
2009,05,28,05,19,7.20
2009,05,28,05,20,7.20
2009,05,28,05,21,7.20
2009,05,28,05,22,7.20
2009,05,28,05,23,7.20
2009,05,28,05,24,7.10
2009,05,28,05,25,7.10
2009,05,28,05,26,7.10
2009,05,28,05,27,7.10
2009,05,28,05,28,7.10
2009,05,28,05,29,7.10
2009,05,28,05,30,7.10
2009,05,28,05,31,7.10
2009,05,28,05,32,7.10
2009,05,28,05,33,7.00
2009,05,28,05,34,7.00
2009,05,28,05,35,7.00
2009,05,28,05,36,7.00
2009,05,28,05,37,7.00
2009,05,28,05,38,7.00
2009,05,28,05,39,7.00
2009,05,28,05,40,7.00
2009,05,28,05,41,7.00
2009,05,28,05,42,7.10
2009,05,28,05,43,7.10
2009,05,28,05,44,7.10
2009,05,28,05,45,7.10
2009,05,28,05,46,7.10
2009,05,28,05,47,7.10
2009,05,28,05,48,7.10
2009,05,28,05,49,7.10
2009,05,28,05,50,7.10
2009,05,28,05,51,7.10
2009,05,28,05,52,7.10
2009,05,28,05,53,7.10
2009,05,28,05,54,7.10
2009,05,28,05,55,7.20
2009,05,28,05,56,7.20
2009,05,28,05,57,7.20
2009,05,28,05,58,7.20
2009,05,28,05,59,7.20
2009,05,28,06,00,7.20
2009,05,28,06,01,7.20
2009,05,28,06,02,7.30
2009,05,28,06,03,7.30
2009,05,28,06,04,7.30
2009,05,28,06,05,7.30
2009,05,28,06,06,7.30
2009,05,28,06,07,7.30
2009,05,28,06,08,7.30
2009,05,28,06,09,7.30
2009,05,28,06,10,7.30
2009,05,28,06,11,7.30
2009,05,28,06,12,7.30
2009,05,28,06,13,7.30
2009,05,28,06,14,7.30
2009,05,28,06,15,7.30
2009,05,28,06,16,7.30
2009,05,28,06,17,7.30
2009,05,28,06,18,7.40
2009,05,28,06,19,7.40
2009,05,28,06,20,7.40
2009,05,28,06,21,7.40
2009,05,28,06,22,7.40
2009,05,28,06,23,7.40
2009,05,28,06,24,7.40
2009,05,28,06,25,7.40
2009,05,28,06,26,7.40
2009,05,28,06,27,7.50
2009,05,28,06,28,7.50
2009,05,28,06,29,7.50
2009,05,28,06,30,7.50
2009,05,28,06,31,7.50
2009,05,28,06,32,7.50
2009,05,28,06,33,7.50
2009,05,28,06,34,7.50
2009,05,28,06,35,7.60
2009,05,28,06,36,7.60
2009,05,28,06,37,7.60
2009,05,28,06,38,7.60
2009,05,28,06,39,7.60
2009,05,28,06,40,7.70
2009,05,28,06,41,7.70
2009,05,28,06,42,7.70
2009,05,28,06,43,7.70
2009,05,28,06,44,7.80
2009,05,28,06,45,7.80
2009,05,28,06,46,7.80
2009,05,28,06,47,7.80
2009,05,28,06,48,7.90
2009,05,28,06,49,8.00
2009,05,28,06,50,8.00
2009,05,28,06,51,8.10
2009,05,28,06,52,8.20
2009,05,28,06,53,8.20
2009,05,28,06,54,8.20
2009,05,28,06,55,8.30
2009,05,28,06,56,8.30
2009,05,28,06,57,8.40
2009,05,28,06,58,8.40
2009,05,28,06,59,8.50
2009,05,28,07,00,8.50
2009,05,28,07,01,8.60
2009,05,28,07,02,8.60
2009,05,28,07,03,8.60
2009,05,28,07,04,8.70
2009,05,28,07,05,8.70
2009,05,28,07,06,8.70
2009,05,28,07,07,8.70
2009,05,28,07,08,8.70
2009,05,28,07,09,8.80
2009,05,28,07,10,8.80
2009,05,28,07,11,8.80
2009,05,28,07,12,8.80
2009,05,28,07,13,8.90
2009,05,28,07,14,8.90
2009,05,28,07,15,8.90
2009,05,28,07,16,8.90
2009,05,28,07,17,9.00
2009,05,28,07,18,9.00
2009,05,28,07,19,9.00
2009,05,28,07,20,9.10
2009,05,28,07,21,9.10
2009,05,28,07,22,9.20
2009,05,28,07,23,9.20
2009,05,28,07,24,9.20
2009,05,28,07,25,9.20
2009,05,28,07,26,9.30
2009,05,28,07,27,9.30
2009,05,28,07,28,9.40
2009,05,28,07,29,9.40
2009,05,28,07,30,9.50
2009,05,28,07,31,9.50
2009,05,28,07,32,9.50
2009,05,28,07,33,9.60
2009,05,28,07,34,9.60
2009,05,28,07,35,9.70
2009,05,28,07,36,9.70
2009,05,28,07,37,9.70
2009,05,28,07,38,9.70
2009,05,28,07,39,9.70
2009,05,28,07,40,9.80
2009,05,28,07,41,9.80
2009,05,28,07,42,9.90
2009,05,28,07,43,9.90
2009,05,28,07,44,9.90
2009,05,28,07,45,10.00
2009,05,28,07,46,10.10
2009,05,28,07,47,10.10
2009,05,28,07,48,10.10
2009,05,28,07,49,10.20
2009,05,28,07,50,10.20
2009,05,28,07,51,10.30
2009,05,28,07,52,10.40
2009,05,28,07,53,10.40
2009,05,28,07,54,10.50
2009,05,28,07,55,10.60
2009,05,28,07,56,10.60
2009,05,28,07,57,10.70
2009,05,28,07,58,10.80
2009,05,28,07,59,10.90
2009,05,28,08,00,10.90
2009,05,28,08,01,11.00
2009,05,28,08,02,11.10
2009,05,28,08,03,11.20
2009,05,28,08,04,11.20
2009,05,28,08,05,11.30
2009,05,28,08,06,11.40
2009,05,28,08,07,11.40
2009,05,28,08,08,11.60
2009,05,28,08,09,11.60
2009,05,28,08,10,11.70
2009,05,28,08,11,11.80
2009,05,28,08,12,11.80
2009,05,28,08,13,11.90
2009,05,28,08,14,12.00
2009,05,28,08,15,12.10
2009,05,28,08,16,12.20
2009,05,28,08,17,12.30
2009,05,28,08,18,12.40
2009,05,28,08,19,12.60
2009,05,28,08,20,12.70
2009,05,28,08,21,12.80
2009,05,28,08,22,12.90
2009,05,28,08,23,13.00
2009,05,28,08,24,13.20
2009,05,28,08,25,13.30
2009,05,28,08,26,13.30
2009,05,28,08,27,13.40
2009,05,28,08,28,13.50
2009,05,28,08,29,13.60
2009,05,28,08,30,13.60
2009,05,28,08,31,13.70
2009,05,28,08,32,13.70
2009,05,28,08,33,13.80
2009,05,28,08,34,13.90
2009,05,28,08,35,14.00
2009,05,28,08,36,14.00
2009,05,28,08,37,14.10
2009,05,28,08,38,14.20
2009,05,28,08,39,14.20
2009,05,28,08,40,14.20
2009,05,28,08,41,14.20
2009,05,28,08,42,14.30
2009,05,28,08,43,14.30
2009,05,28,08,44,14.40
2009,05,28,08,45,14.40
2009,05,28,08,46,14.50
2009,05,28,08,47,14.60
2009,05,28,08,48,14.70
2009,05,28,08,49,14.80
2009,05,28,08,50,14.80
2009,05,28,08,51,14.80
2009,05,28,08,52,14.80
2009,05,28,08,53,14.80
2009,05,28,08,54,14.80
2009,05,28,08,55,14.70
2009,05,28,08,56,14.70
2009,05,28,08,57,14.60
2009,05,28,08,58,14.60
2009,05,28,08,59,14.70
2009,05,28,09,00,14.70
2009,05,28,09,01,14.80
2009,05,28,09,02,14.80
2009,05,28,09,03,14.90
2009,05,28,09,04,14.90
2009,05,28,09,05,15.00
2009,05,28,09,06,15.10
2009,05,28,09,07,15.10
2009,05,28,09,08,15.20
2009,05,28,09,09,15.30
2009,05,28,09,10,15.30
2009,05,28,09,11,15.40
2009,05,28,09,12,15.50
2009,05,28,09,13,15.50
2009,05,28,09,14,15.60
2009,05,28,09,15,15.50
2009,05,28,09,16,15.50
2009,05,28,09,17,15.40
2009,05,28,09,18,15.30
2009,05,28,09,19,15.30
2009,05,28,09,20,15.40
2009,05,28,09,21,15.40
2009,05,28,09,22,15.50
2009,05,28,09,23,15.60
2009,05,28,09,24,15.70
2009,05,28,09,25,15.80
2009,05,28,09,26,15.80
2009,05,28,09,27,15.70
2009,05,28,09,28,15.70
2009,05,28,09,29,15.70
2009,05,28,09,30,15.60
2009,05,28,09,31,15.60
2009,05,28,09,32,15.60
2009,05,28,09,33,15.70
2009,05,28,09,34,15.80
2009,05,28,09,35,15.80
2009,05,28,09,36,15.80
2009,05,28,09,37,15.80
2009,05,28,09,38,15.80
2009,05,28,09,39,15.70
2009,05,28,09,40,15.60
2009,05,28,09,41,15.50
2009,05,28,09,42,15.50
2009,05,28,09,43,15.60
2009,05,28,09,44,15.80
2009,05,28,09,45,15.90
2009,05,28,09,46,16.10
2009,05,28,09,47,16.20
2009,05,28,09,48,16.40
2009,05,28,09,49,16.40
2009,05,28,09,50,16.30
2009,05,28,09,51,16.30
2009,05,28,09,52,16.20
2009,05,28,09,53,16.20
2009,05,28,09,54,16.20
2009,05,28,09,55,16.10
2009,05,28,09,56,16.00
2009,05,28,09,57,15.80
2009,05,28,09,58,15.80
2009,05,28,09,59,15.80
2009,05,28,10,00,15.80
2009,05,28,10,01,15.80
2009,05,28,10,02,15.80
2009,05,28,10,03,15.80
2009,05,28,10,04,15.80
2009,05,28,10,05,15.90
2009,05,28,10,06,16.10
2009,05,28,10,07,16.20
2009,05,28,10,08,16.30
2009,05,28,10,09,16.40
2009,05,28,10,10,16.40
2009,05,28,10,11,16.50
2009,05,28,10,12,16.60
2009,05,28,10,13,16.50
2009,05,28,10,14,16.50
2009,05,28,10,15,16.60
2009,05,28,10,16,16.60
2009,05,28,10,17,16.60
2009,05,28,10,18,16.70
2009,05,28,10,19,16.90
2009,05,28,10,20,17.00
2009,05,28,10,21,17.00
2009,05,28,10,22,16.90
2009,05,28,10,23,16.90
2009,05,28,10,24,16.80
2009,05,28,10,25,16.80
2009,05,28,10,26,16.80
2009,05,28,10,27,17.00
2009,05,28,10,28,17.10
2009,05,28,10,29,17.10
2009,05,28,10,30,17.20
2009,05,28,10,31,17.20
2009,05,28,10,32,17.30
2009,05,28,10,33,17.40
2009,05,28,10,34,17.40
2009,05,28,10,35,17.50
2009,05,28,10,36,17.50
2009,05,28,10,37,17.40
2009,05,28,10,38,17.40
2009,05,28,10,39,17.50
2009,05,28,10,40,17.60
2009,05,28,10,41,17.70
2009,05,28,10,42,17.70
2009,05,28,10,43,17.60
2009,05,28,10,44,17.50
2009,05,28,10,45,17.50
2009,05,28,10,46,17.40
2009,05,28,10,47,17.30
2009,05,28,10,48,17.20
2009,05,28,10,49,17.30
2009,05,28,10,50,17.40
2009,05,28,10,51,17.40
2009,05,28,10,52,17.40
2009,05,28,10,53,17.50
2009,05,28,10,54,17.50
2009,05,28,10,55,17.50
2009,05,28,10,56,17.50
2009,05,28,10,57,17.40
2009,05,28,10,58,17.40
2009,05,28,10,59,17.30
2009,05,28,11,00,17.30
2009,05,28,11,01,17.50
2009,05,28,11,02,17.60
2009,05,28,11,03,17.70
2009,05,28,11,04,17.70
2009,05,28,11,05,17.70
2009,05,28,11,06,17.60
2009,05,28,11,07,17.50
2009,05,28,11,08,17.40
2009,05,28,11,09,17.30
2009,05,28,11,10,17.40
2009,05,28,11,11,17.50
2009,05,28,11,12,17.50
2009,05,28,11,13,17.50
2009,05,28,11,14,17.50
2009,05,28,11,15,17.50
2009,05,28,11,46,18.60
2009,05,28,11,47,18.90
2009,05,28,11,48,19.00
2009,05,28,11,49,19.20
2009,05,28,11,50,19.30
2009,05,28,11,51,19.50
2009,05,28,11,52,19.60
2009,05,28,11,53,19.70
2009,05,28,11,54,19.90
2009,05,28,11,55,19.90
2009,05,28,11,56,20.10
2009,05,28,11,57,20.20
2009,05,28,11,58,20.20
2009,05,28,11,59,20.20
2009,05,28,12,00,20.00
2009,05,28,12,01,19.90
2009,05,28,12,02,19.90
2009,05,28,12,03,19.90
2009,05,28,12,04,19.80
2009,05,28,12,05,19.80
2009,05,28,12,06,19.70
2009,05,28,12,07,19.70
2009,05,28,12,08,19.70
2009,05,28,12,09,19.70
2009,05,28,12,10,19.70
2009,05,28,12,11,19.60
2009,05,28,12,12,19.60
2009,05,28,12,13,19.50
2009,05,28,12,14,19.40
2009,05,28,12,15,19.50
2009,05,28,12,16,19.70
2009,05,28,12,17,19.90
2009,05,28,12,18,19.90
2009,05,28,12,19,19.90
2009,05,28,12,20,19.70
2009,05,28,12,21,19.50
2009,05,28,12,22,19.40
2009,05,28,12,23,19.40
2009,05,28,12,24,19.40
2009,05,28,12,25,19.30
2009,05,28,12,26,19.30
2009,05,28,12,27,19.30
2009,05,28,12,28,19.40
2009,05,28,12,29,19.50
2009,05,28,12,30,19.60
2009,05,28,12,31,19.70
2009,05,28,12,32,19.60
2009,05,28,12,33,19.60
2009,05,28,12,34,19.40
2009,05,28,12,35,19.40
2009,05,28,12,36,19.40
2009,05,28,12,37,19.40
2009,05,28,12,38,19.40
2009,05,28,12,39,19.40
2009,05,28,12,40,19.20
2009,05,28,12,41,19.00
2009,05,28,12,42,18.90
2009,05,28,12,43,18.80
2009,05,28,12,44,18.90
2009,05,28,12,45,19.00
2009,05,28,12,46,19.10
2009,05,28,12,47,19.20
2009,05,28,12,48,19.30
2009,05,28,12,49,19.50
2009,05,28,12,50,19.60
2009,05,28,12,51,19.60
2009,05,28,12,52,19.70
2009,05,28,12,53,19.80
2009,05,28,12,54,19.70
2009,05,28,12,55,19.60
2009,05,28,12,56,19.60
2009,05,28,12,57,19.70
2009,05,28,12,58,19.70
2009,05,28,12,59,19.60
2009,05,28,13,00,19.50
2009,05,28,13,01,19.50
2009,05,28,13,02,19.50
2009,05,28,13,03,19.50
2009,05,28,13,04,19.40
2009,05,28,13,05,19.40
2009,05,28,13,06,19.40
2009,05,28,13,07,19.30
2009,05,28,13,08,19.20
2009,05,28,13,09,19.30
2009,05,28,13,10,19.40
2009,05,28,13,11,19.60
2009,05,28,13,12,19.60
2009,05,28,13,13,19.60
2009,05,28,13,14,19.60
2009,05,28,13,15,19.60
2009,05,28,13,16,19.60
2009,05,28,13,17,19.60
2009,05,28,13,18,19.60
2009,05,28,13,19,19.60
2009,05,28,13,20,19.60
2009,05,28,13,21,19.70
2009,05,28,13,22,19.80
2009,05,28,13,23,19.80
2009,05,28,13,24,19.90
2009,05,28,13,25,19.90
2009,05,28,13,26,19.80
2009,05,28,13,27,19.80
2009,05,28,13,28,19.80
2009,05,28,13,29,19.70
2009,05,28,13,30,19.60
2009,05,28,13,31,19.60
2009,05,28,13,32,19.70
2009,05,28,13,33,19.80
2009,05,28,13,34,19.80
2009,05,28,13,35,19.80
2009,05,28,13,36,19.70
2009,05,28,13,37,19.80
2009,05,28,13,38,19.90
2009,05,28,13,39,20.10
2009,05,28,13,40,20.20
2009,05,28,13,41,20.40
2009,05,28,13,42,20.60
2009,05,28,13,43,20.70
2009,05,28,13,44,20.80
2009,05,28,13,45,20.80
2009,05,28,13,46,20.80
2009,05,28,13,47,20.80
2009,05,28,13,48,20.90
2009,05,28,13,49,21.00
2009,05,28,13,50,21.10
2009,05,28,13,51,21.20
2009,05,28,13,52,21.10
2009,05,28,13,53,21.00
2009,05,28,13,54,20.90
2009,05,28,13,55,20.80
2009,05,28,13,56,20.80
2009,05,28,13,57,20.70
2009,05,28,13,58,20.70
2009,05,28,13,59,20.70
2009,05,28,14,00,20.80
2009,05,28,14,01,20.90
2009,05,28,14,02,20.90
2009,05,28,14,03,20.90
2009,05,28,14,04,20.90
2009,05,28,14,05,20.90
2009,05,28,14,06,21.00
2009,05,28,14,07,21.10
2009,05,28,14,08,21.10
2009,05,28,14,09,21.00
2009,05,28,14,10,21.00
2009,05,28,14,11,20.90
2009,05,28,14,12,20.90
2009,05,28,14,13,21.00
2009,05,28,14,14,21.00
2009,05,28,14,15,21.00
2009,05,28,14,16,21.10
2009,05,28,14,17,21.20
2009,05,28,14,18,21.20
2009,05,28,14,19,21.10
2009,05,28,14,20,21.10
2009,05,28,14,21,21.00
2009,05,28,14,22,20.90
2009,05,28,14,23,20.80
2009,05,28,14,24,20.70
2009,05,28,14,25,20.60
2009,05,28,14,26,20.50
2009,05,28,14,27,20.40
2009,05,28,14,28,20.40
2009,05,28,14,29,20.40
2009,05,28,14,30,20.40
2009,05,28,14,31,20.50
2009,05,28,14,32,20.50
2009,05,28,14,33,20.50
2009,05,28,14,39,20.90
2009,05,28,14,40,20.90
2009,05,28,14,41,20.90
2009,05,28,14,42,21.00
2009,05,28,14,43,20.90
2009,05,28,14,44,20.90
2009,05,28,14,45,21.00
2009,05,28,14,46,21.00
2009,05,28,14,47,21.10
2009,05,28,14,48,21.20
2009,05,28,14,49,21.10
2009,05,28,14,50,21.00
2009,05,28,14,51,21.00
2009,05,28,14,52,21.00
2009,05,28,14,53,21.10
2009,05,28,14,54,21.20
2009,05,28,14,55,21.20
2009,05,28,14,56,21.30
2009,05,28,14,57,21.30
2009,05,28,14,58,21.30
2009,05,28,14,59,21.30
2009,05,28,15,00,21.40
2009,05,28,15,01,21.40
2009,05,28,15,02,21.40
2009,05,28,15,03,21.50
2009,05,28,15,04,21.60
2009,05,28,15,05,21.70
2009,05,28,15,06,21.80
2009,05,28,15,07,21.80
2009,05,28,15,08,21.90
2009,05,28,15,09,21.80
2009,05,28,15,10,21.80
2009,05,28,15,11,21.70
2009,05,28,15,12,21.70
2009,05,28,15,13,21.60
2009,05,28,15,14,21.60
2009,05,28,15,15,21.60
2009,05,28,15,16,21.50
2009,05,28,15,17,21.40
2009,05,28,15,18,21.30
2009,05,28,15,19,21.20
2009,05,28,15,20,21.20
2009,05,28,15,21,21.20
2009,05,28,15,22,21.20
2009,05,28,15,23,21.30
2009,05,28,15,24,21.30
2009,05,28,15,25,21.60
2009,05,28,15,26,21.70
2009,05,28,15,27,21.90
2009,05,28,15,28,22.20
2009,05,28,15,29,22.30
2009,05,28,15,30,22.50
2009,05,28,15,31,22.70
2009,05,28,15,32,22.60
2009,05,28,15,33,22.60
2009,05,28,15,34,22.70
2009,05,28,15,35,22.70
2009,05,28,15,36,22.60
2009,05,28,15,37,22.50
2009,05,28,15,38,22.50
2009,05,28,15,39,22.50
2009,05,28,15,40,22.60
2009,05,28,15,41,22.70
2009,05,28,15,42,22.70
2009,05,28,15,43,22.70
2009,05,28,15,44,22.60
2009,05,28,15,45,22.60
2009,05,28,15,46,22.50
2009,05,28,15,47,22.60
2009,05,28,15,48,22.60
2009,05,28,15,49,22.70
2009,05,28,15,50,22.80
2009,05,28,15,51,22.90
2009,05,28,15,52,22.90
2009,05,28,15,53,22.90
2009,05,28,15,54,22.90
2009,05,28,15,55,22.90
2009,05,28,15,56,22.90
2009,05,28,15,57,22.90
2009,05,28,15,58,22.90
2009,05,28,15,59,22.90
2009,05,28,16,00,22.80
2009,05,28,16,01,22.70
2009,05,28,16,02,22.70
2009,05,28,16,03,22.70
2009,05,28,16,04,22.70
2009,05,28,16,05,22.80
2009,05,28,16,06,22.80
2009,05,28,16,07,22.90
2009,05,28,16,08,22.90
2009,05,28,16,09,22.90
2009,05,28,16,10,22.90
2009,05,28,16,11,22.90
2009,05,28,16,12,22.90
2009,05,28,16,13,22.90
2009,05,28,16,14,22.90
2009,05,28,16,15,22.90
2009,05,28,16,16,22.90
2009,05,28,16,17,23.00
2009,05,28,16,18,23.10
2009,05,28,16,19,23.10
2009,05,28,16,20,23.10
2009,05,28,16,21,23.10
2009,05,28,16,22,23.20
2009,05,28,16,23,23.30
2009,05,28,16,24,23.30
2009,05,28,16,25,23.50
2009,05,28,16,26,23.70
2009,05,28,16,27,23.70
2009,05,28,16,28,23.80
2009,05,28,16,29,23.90
2009,05,28,16,30,24.00
2009,05,28,16,31,24.10
2009,05,28,16,32,23.90
2009,05,28,16,33,23.70
2009,05,28,16,34,23.50
2009,05,28,16,35,23.30
2009,05,28,16,36,23.30
2009,05,28,16,37,23.30
2009,05,28,16,38,23.20
2009,05,28,16,39,23.00
2009,05,28,16,40,22.90
2009,05,28,16,41,22.90
2009,05,28,16,42,22.90
2009,05,28,16,43,22.90
2009,05,28,16,44,22.80
2009,05,28,16,45,22.80
2009,05,28,16,46,22.70
2009,05,28,16,47,22.70
2009,05,28,16,48,22.70
2009,05,28,16,49,22.60
2009,05,28,16,50,22.60
2009,05,28,16,51,22.60
2009,05,28,16,52,22.50
2009,05,28,16,53,22.50
2009,05,28,16,54,22.60
2009,05,28,16,55,22.70
2009,05,28,16,56,22.80
2009,05,28,16,57,22.90
2009,05,28,16,58,22.90
2009,05,28,16,59,22.90
2009,05,28,17,00,22.90
2009,05,28,17,01,22.80
2009,05,28,17,02,22.80
2009,05,28,17,03,22.60
2009,05,28,17,04,22.50
2009,05,28,17,05,22.40
2009,05,28,17,06,22.30
2009,05,28,17,07,22.30
2009,05,28,17,08,22.20
2009,05,28,17,09,22.20
2009,05,28,17,10,22.20
2009,05,28,17,11,22.10
2009,05,28,17,12,22.10
2009,05,28,17,13,22.10
2009,05,28,17,14,22.20
2009,05,28,17,15,22.30
2009,05,28,17,16,22.30
2009,05,28,17,17,22.40
2009,05,28,17,18,22.60
2009,05,28,17,19,22.60
2009,05,28,17,20,22.60
2009,05,28,17,21,22.70
2009,05,28,17,22,22.80
2009,05,28,17,23,22.90
2009,05,28,17,24,22.80
2009,05,28,17,25,22.80
2009,05,28,17,26,22.80
2009,05,28,17,27,22.90
2009,05,28,17,28,22.90
2009,05,28,17,29,22.90
2009,05,28,17,30,22.90
2009,05,28,17,31,22.90
2009,05,28,17,32,22.80
2009,05,28,17,33,22.70
2009,05,28,17,34,22.70
2009,05,28,17,35,22.60
2009,05,28,17,36,22.50
2009,05,28,17,37,22.40
2009,05,28,17,38,22.40
2009,05,28,17,39,22.30
2009,05,28,17,40,22.30
2009,05,28,17,41,22.30
2009,05,28,17,42,22.20
2009,05,28,17,43,22.10
2009,05,28,17,44,22.10
2009,05,28,17,45,22.10
2009,05,28,17,46,22.10
2009,05,28,17,47,22.00
2009,05,28,17,48,22.00
2009,05,28,17,49,21.90
2009,05,28,17,50,21.80
2009,05,28,17,51,21.80
2009,05,28,17,52,21.80
2009,05,28,17,53,21.80
2009,05,28,17,54,21.80
2009,05,28,17,55,21.80
2009,05,28,17,56,21.80
2009,05,28,17,57,21.90
2009,05,28,17,58,21.90
2009,05,28,17,59,22.00
2009,05,28,18,00,22.10
2009,05,28,18,01,22.10
2009,05,28,18,02,22.20
2009,05,28,18,03,22.20
2009,05,28,18,04,22.20
2009,05,28,18,05,22.30
2009,05,28,18,06,22.30
2009,05,28,18,07,22.30
2009,05,28,18,08,22.30
2009,05,28,18,09,22.30
2009,05,28,18,10,22.30
2009,05,28,18,11,22.30
2009,05,28,18,12,22.30
2009,05,28,18,13,22.30
2009,05,28,18,14,22.20
2009,05,28,18,15,22.20
2009,05,28,18,16,22.20
2009,05,28,18,17,22.20